Home > Weather > Bridgeport > Past weeks

Flag for U.S.A. Weather for the Past 2 Weeks in Bridgeport, Connecticut, U.S.A.

Now
26 °F

Clear.


Feels Like: 22 °F
Forecast: 23 / 38 °F
Wind: 3 mph from West

Location: Sikorsky Memorial Airport

Current Time: Feb 6, 2016 at 2:36:16 AM

Latest Report: Feb 6, 2016 at 1:52 AM


Visibility: 10 mi

Pressure: 30.34 "Hg

Humidity: 66%

Dew point: 16 °F

Location of BridgeportLocation

Historic Weather in Bridgeport — Graph

°F

Bridgeport Temperature Yesterday

Maximum temperature yesterday: 43 °F (at 12:52 AM)
Minimum temperature yesterday: 21 °F (at 11:52 PM)
Average temperature yesterday: 33 °F

High & Low Weather Summary for the Past Weeks

 TemperatureHumidityPressure
High59 °F (Feb 1, 12:52 PM)97% (Feb 3, 7:52 PM)30.38 "Hg (Feb 3, 7:52 PM)
Low19 °F (Jan 22, 5:52 AM)31% (Jan 24, 2:52 PM)29.42 "Hg (Jan 29, 12:52 PM)
Average37 °F67%29.98 "Hg
* Reported Jan 22 12:52 AM — Feb 6 12:52 AM, Bridgeport, Weather by CustomWeather, © 2016

Note: Actual official high and low records may vary slightly from our data, if they occured in-between our weather recording intervals... More about our weather records

Advertising

Bridgeport Weather History for the Previous 24 Hours

 ConditionsComfort  
Time TempWeatherWind HumidityBarometerVisibility
12:52 AM
Sat, Feb 6
27 °FClear.6 mph61%30.32 "Hg10 mi
11:52 PM
Fri, Feb 5
21 °FClear.No wind74%30.30 "Hg10 mi
10:52 PM29 °FClear.6 mph56%30.30 "Hg10 mi
9:52 PM29 °FClear.5 mph56%30.28 "Hg10 mi
8:52 PM31 °FClear.5 mph52%30.26 "Hg10 mi
7:52 PM28 °FClear.3 mph64%30.24 "Hg10 mi
6:52 PM29 °FClear.No wind66%30.22 "Hg10 mi
5:52 PM34 °FClear.5 mph54%30.17 "Hg10 mi
4:52 PM37 °FSunny.8 mph46%30.13 "Hg10 mi
3:52 PM39 °FSunny.16 mph41%30.08 "Hg10 mi
2:52 PM38 °FSunny.18 mph53%30.05 "Hg10 mi
1:52 PM35 °FOvercast.8 mph75%30.04 "Hg10 mi
12:52 PM33 °FLight snow. Fog.17 mph85%30.01 "Hg3 mi
11:52 AM32 °FLight snow. Ice fog.16 mph96%30.03 "Hg1 mi
10:52 AM32 °FSnow. Fog.14 mph96%30.04 "Hg0 mi
9:56 AM32 °FHeavy snow. Fog.13 mph96%30.06 "Hg0 mi
9:47 AM33 °FLight snow. Fog.14 mph88%30.05 "Hg1 mi
8:52 AM33 °FSnow. Fog.12 mph92%30.05 "Hg1 mi
8:03 AM33 °FSnow. Fog.15 mph92%30.09 "Hg1 mi
7:04 AM33 °FLight snow. Fog.16 mph92%30.04 "Hg1 mi
5:52 AM33 °FLight snow. Fog.15 mph92%30.03 "Hg1 mi
4:56 AM34 °FLight snow. Fog.15 mph88%30.02 "Hg1 mi
3:59 AM34 °FLight snow. Fog.16 mph88%30.03 "Hg1 mi
2:52 AM39 °FLight rain. Overcast.14 mph70%30.03 "Hg10 mi
Weather by CustomWeather, © 2016

See weather overviewHow to use our weather pages